Regional Weather Roundup
Issued by NWS

Home | Current Version | Previous Version | Text Only | Print | Product List | Glossary On
Versions: 1 2 3 4 5 6 7 8 9 10 11 12 13 14 15 16 17 18 19 20 21 22 23 24 25 26 27 28 29 30 31 32 33 34 35 36 37 38 39 40 41 42 43 44 45 46 47 48 49 50
000
ASUS44 KLIX 251511
RWRLA
LOUISIANA WEATHER ROUNDUP
NATIONAL WEATHER SERVICE NEW ORLEANS LA
1000 AM CDT SAT APR 25 2015

NOTE: "FAIR" INDICATES FEW OR NO CLOUDS BELOW 12,000 FEET WITH NO
      SIGNIFICANT WEATHER AND/OR OBSTRUCTIONS TO VISIBILITY.
      SKY/WX - SKY CONDITION AND SIGNIFICANT WEATHER.
      TMP - AIR TEMPERATURE.    DP   - DEWPOINT TEMPERATURE.
      RH  - RELATIVE HUMIDITY.  PRES - PRESSURE.
      HX  - HEAT INDEX.         WCI  - WIND CHILL INDEX.

*  THESE STATIONS ARE NOT NWS OR FAA STATIONS AND ARE NOT UNDER
   NWS QUALITY CONTROL.

LAZ040-048-061>063-065-066-069-251600-
SOUTHEAST LOUISIANA

CITY           SKY/WX    TMP DP  RH WIND       PRES   REMARKS
N.O. AUDUBON     N/A     83  78  83 MISG        N/A
N.O. INTL ARPT PTSUNNY   82  73  74 S17       29.78F
N.O. LAKEFRONT MOSUNNY   84  72  67 S16       29.78F
SLIDELL        MOSUNNY   81  73  76 SW10G17   29.78S
BATON ROUGE    CLOUDY    79  73  82 SW12      29.79R
BOOTHVILLE     MOSUNNY   81  76  84 SW14G23   29.83F
BELLE CHASSE   PTSUNNY   80  74  81 S16       29.78F
BOGALUSA*        N/A     82  72  72 SW8       29.78F
GALLIANO*      PTSUNNY   82  76  80 MISG      29.81F
NEW ROADS*     PTSUNNY   76  73  88 SW7       29.80F
GONZALES*      FAIR     N/A N/A N/A S10       29.78R
HAMMOND*       PTSUNNY   82  70  65 S12       29.79R
HOUMA*         MOSUNNY   81  75  83 S14       29.80F HAZE
PORT FOURCHON* SUNNY     79  75  89 S15G21    29.85F HAZE

$$

LAZ041-044-053-054-251600-
SOUTHWEST LOUISIANA

CITY           SKY/WX    TMP DP  RH WIND       PRES   REMARKS
LAKE CHARLES   TSTM      72  69  90 W14G30    29.84R VSB 1
LAFAYETTE      LGT RAIN  76  73  91 NW7       29.80F
PATTERSON      CLOUDY    79  73  83 S8        29.80S
SALT POINT       N/A     77  75  93 VRB7      29.76F
NEW IBERIA     CLOUDY    77  73  87 S8        29.79F
CHENAULT AIRPK TSTM      70  68  94 W8        29.82R

$$

LAZ027-028-251600-
CENTRAL LOUISIANA

CITY           SKY/WX    TMP DP  RH WIND       PRES   REMARKS
FORT POLK      CLOUDY    72  70  94 SW9       29.79F
ALEXANDRIA INT LGT RAIN  73  70  90 W8G21     29.79R FOG
ALEXANDRIA     CLOUDY    75  72  90 W15       29.81R FOG

$$

LAZ001-002-251600-
NORTHWEST LOUISIANA

CITY           SKY/WX    TMP DP  RH WIND       PRES   REMARKS
SHREVEPORT     CLOUDY    76  72  87 W10       29.71S
BARKSDALE AFB  PTSUNNY   75  75  98 W10       29.70F
DTN SHREVEPORT CLOUDY    75  71  87 W6        29.70F FOG

$$

LAZ014-016-251600-
NORTHEAST LOUISIANA

CITY           SKY/WX    TMP DP  RH WIND       PRES   REMARKS
MONROE         CLOUDY    73  72  96 SW7       29.73S FOG
TALLULAH       CLOUDY    75  70  84 VRB3      29.74S

$$



USA.gov is the U.S. government's official web portal to all federal, state and local government web resources and services.